MST,Max TemperatureF,Mean TemperatureF,Min TemperatureF,Max Dew PointF,MeanDew PointF,Min DewpointF,Max Humidity, Mean Humidity, Min Humidity, Max Sea Level PressureIn, Mean Sea Level PressureIn, Min Sea Level PressureIn, Max VisibilityMiles, Mean VisibilityMiles, Min VisibilityMiles, Max Wind SpeedMPH, Mean Wind SpeedMPH, Max Gust SpeedMPH,PrecipitationIn, CloudCover, Events, WindDirDegrees
2012-12-1,49,37,25,34,30,27,89,73,56,29.80,29.75,29.66,10,10,10,12,7,14,0.00,1,,237
2012-12-2,61,45,29,32,29,25,78,57,36,29.75,29.53,29.30,10,10,10,25,10,35,0.00,1,,195
2012-12-3,51,38,24,37,24,18,76,54,32,30.02,29.77,29.43,10,10,10,36,18,44,T,2,,286
2012-12-4,33,24,14,21,17,12,92,74,56,30.25,30.16,30.04,10,10,9,20,10,24,0.00,0,,121
2012-12-5,55,39,23,31,25,18,81,61,41,30.03,29.80,29.64,10,10,10,25,13,32,0.00,1,,224
2012-12-6,39,30,21,22,18,13,92,66,40,30.04,29.97,29.87,10,10,10,24,9,31,0.00,1,,268
2012-12-7,25,20,15,21,17,12,92,80,68,30.03,29.91,29.74,10,5,0,13,7,16,T,6,Fog-Snow,87
2012-12-8,26,15,4,24,10,1,100,90,80,30.26,29.86,29.64,10,3,0,25,13,32,0.04,7,Fog-Rain-Snow,39
2012-12-9,10,0,-10,4,-5,-14,87,80,72,30.53,30.36,30.04,10,10,7,17,11,22,0.00,1,,263
2012-12-10,28,16,3,23,17,-2,84,76,67,29.98,29.79,29.66,10,8,2,31,18,40,T,7,Snow,278
2012-12-11,33,23,13,24,19,10,92,81,69,29.83,29.71,29.57,10,10,10,17,10,23,0.00,7,,227
2012-12-12,34,27,20,27,21,16,96,83,69,29.94,29.74,29.56,10,5,1,15,6,18,0.15,7,Snow,47
2012-12-13,32,25,18,29,23,16,100,92,84,30.02,29.93,29.81,10,3,0,20,10,22,T,8,Fog-Snow,174
2012-12-14,29,19,9,24,14,6,100,90,80,29.88,29.73,29.62,10,4,0,13,3,15,0.00,1,Fog,244
2012-12-15,25,17,9,20,12,7,100,87,74,29.88,29.81,29.73,10,6,0,15,8,17,0.00,2,Fog,308
2012-12-16,23,13,3,20,10,0,96,88,80,29.83,29.72,29.62,10,5,0,13,6,14,T,7,Fog,149
2012-12-17,24,14,4,19,13,2,92,83,74,29.72,29.56,29.37,10,9,2,18,8,22,0.00,4,Snow,163
2012-12-18,33,24,15,27,20,11,92,75,58,29.75,29.59,29.48,10,8,1,30,16,38,T,4,Snow,267
2012-12-19,20,14,8,12,6,-5,83,75,67,30.20,30.00,29.78,10,9,4,23,16,29,T,3,Snow,292
2012-12-20,27,14,0,12,5,-2,87,69,50,30.20,30.16,30.12,10,10,10,13,7,15,0.00,0,,214
2012-12-21,37,26,15,20,14,8,77,63,48,30.10,30.05,30.00,10,10,10,16,7,18,0.00,0,,216
2012-12-22,21,11,0,15,2,-4,95,81,67,30.23,30.16,30.00,10,10,8,14,8,16,0.00,2,,24
2012-12-23,6,-1,-9,1,0,-10,91,84,76,30.24,30.07,29.96,10,5,0,15,5,18,0.02,7,Snow,69
2012-12-24,4,-4,-12,-1,-10,-17,86,79,72,30.50,30.22,30.02,10,5,0,9,3,10,T,6,Fog-Snow,15
2012-12-25,9,7,4,5,2,-1,88,84,80,30.53,30.35,30.19,10,4,1,7,3,8,0.02,8,Snow,240
2012-12-26,7,4,0,3,1,-3,95,88,80,30.27,30.10,29.91,10,7,1,14,8,17,T,8,Snow,118
2012-12-27,10,6,1,5,2,-6,88,82,76,30.13,29.99,29.89,10,4,1,9,6,12,0.03,7,Snow,102
2012-12-28,15,5,-5,10,3,-8,95,86,76,30.13,30.05,29.88,10,8,1,16,8,21,T,4,Snow,271
2012-12-29,26,17,8,16,12,8,84,73,62,30.11,30.05,30.01,10,10,10,16,12,,0.00,2,,261
2012-12-30,24,16,8,19,14,5,91,79,67,30.17,30.02,29.92,10,8,1,20,11,25,T,6,Snow,298
2012-12-31,16,14,12,12,11,10,92,86,80,30.18,30.08,29.98,10,6,0,12,6,13,T,8,Fog-Snow,144